Zurück zum Katalog

ARIANE 44L+3 R/B

AktivHEO
NORAD 23950·ROCKET BODY·🇫🇷 France

Gestartet Jul 9, 1996 von Guiana Space Centre

Loading…

Nächste Überflüge (nächste 24 Stunden)

TLE

AktuellSource: Space-Track

Epoche: Sep 14, 2026, 08:23 UTC

1 23950U 96040C   26257.34932500  .00000667  00000-0  54635-3 0  9991
2 23950   6.7671 112.8981 6888469 327.9578   4.4944  2.74843861273738

Verfolge ARIANE 44L+3 R/B in Echtzeit mit AllMySat

Download on the App Store